Regional Weather Roundup
Issued by NWS

Home | Current Version | Previous Version | Text Only | Print | Product List | Glossary On
Versions: 1 2 3 4 5 6 7 8 9 10 11 12 13 14 15 16 17 18 19 20 21 22 23 24 25 26 27 28 29 30 31 32 33 34 35 36 37 38 39 40 41 42 43 44 45 46 47 48 49 50
000
ASUS44 KOUN 071310
RWROK

WEATHER ROUNDUP FOR OKLAHOMA
NATIONAL WEATHER SERVICE NORMAN OK
800 AM CDT TUE JUL 07 2015

NOTE: "FAIR" INDICATES FEW OR NO CLOUDS BELOW 12,000 FEET WITH NO
      SIGNIFICANT WEATHER AND/OR OBSTRUCTIONS TO VISIBILITY.

OKZ001>007-009>012-014-015-017-071400-
NORTHWEST OKLAHOMA AND THE PANHANDLE

CITY           SKY/WX    TMP DP  RH WIND       PRES   REMARKS
GAGE           LGT RAIN  63  62  97 N14       30.08R VSB 1
GUYMON         CLOUDY    65  55  70 NE13      30.15S HAZE
ENID/WOODRING  CLOUDY    68  66  94 N14       29.99R FOG
$$

OKZ016-021>023-033>039-044-045-071400-
SOUTHWEST OKLAHOMA

CITY           SKY/WX    TMP DP  RH WIND       PRES   REMARKS
LAWTON/REGL    LGT RAIN  73  69  87 N12       29.95R
LAWTON/FT SILL DRIZZLE   72  71  99 N9        29.94R
FREDERICK      LGT RAIN  72  71  97 N7        29.95R
CLINTON        CLOUDY    69  66  90 N16       30.03R
HOBART         LGT RAIN  71  69  93 NE12      30.00R
ALTUS AFB      LGT RAIN  72  72 100 NE7       29.98R
$$

OKZ018>020-024>031-071400-
CENTRAL OKLAHOMA

CITY           SKY/WX    TMP DP  RH WIND       PRES   REMARKS
OKLAHOMA CITY  CLOUDY    72  71  97 NE7       29.97S
OKC/WILEY POST CLOUDY    73  70  90 N5        29.97S
OKC/TINKER AFB PTSUNNY   71  70  94 NE6       29.96F
STILLWATER     PTSUNNY   75  71  87 N3        29.97S
GUTHRIE        PTSUNNY   74  71  91 CALM      29.97S
$$

OKZ008-013-054>072-071400-
NORTHEAST OKLAHOMA

CITY           SKY/WX    TMP DP  RH WIND       PRES   REMARKS
TULSA          CLOUDY    74  71  91 N5        29.94S
TULSA/JONES    CLOUDY    74  32  21 CALM      29.95S
PONCA CITY     CLOUDY    68  65  90 N15       29.99R FOG
BARTLESVILLE   PTSUNNY   74  73  97 CALM      29.96S
MUSKOGEE       CLOUDY    77  73  87 SW10      29.95R
$$

OKZ032-040>043-046>053-073>077-071400-
SOUTH CENTRAL/SOUTHEAST OKLAHOMA

CITY           SKY/WX    TMP DP  RH WIND       PRES   REMARKS
ARDMORE/DWNTWN CLOUDY    77  72  83 S8        29.95R
MCALESTER      PTSUNNY   79  73  82 S10G17    29.97R
$$



USA.gov is the U.S. government's official web portal to all federal, state and local government web resources and services.